TimeMST,TemperatureF,Dew PointF,Humidity,Sea Level PressureIn,VisibilityMPH,Wind Direction,Wind SpeedMPH,Gust SpeedMPH,PrecipitationIn,Events,Conditions,WindDirDegrees,DateUTC
12:56 AM,37.0,25.0,62,29.80,10.0,West,27.6,34.5,N/A,,Clear,260,2013-02-13 07:56:00
1:56 AM,37.0,25.0,62,29.79,10.0,West,33.4,41.4,N/A,,Clear,260,2013-02-13 08:56:00
2:56 AM,35.1,25.0,67,29.82,10.0,West,21.9,31.1,N/A,,Clear,260,2013-02-13 09:56:00
3:56 AM,33.1,24.1,70,29.83,10.0,West,12.7,-,N/A,,Mostly Cloudy,270,2013-02-13 10:56:00
4:56 AM,37.0,25.0,62,29.84,10.0,WNW,17.3,-,N/A,,Overcast,290,2013-02-13 11:56:00
5:56 AM,37.0,26.1,65,29.83,10.0,West,25.3,38.0,N/A,,Clear,260,2013-02-13 12:56:00
6:56 AM,35.1,26.1,70,29.86,10.0,West,23.0,29.9,N/A,,Clear,270,2013-02-13 13:56:00
7:56 AM,34.0,24.1,67,29.87,10.0,West,19.6,28.8,N/A,,Clear,270,2013-02-13 14:56:00
8:56 AM,37.0,24.1,59,29.89,10.0,West,24.2,27.6,N/A,,Clear,270,2013-02-13 15:56:00
9:56 AM,42.1,21.0,43,29.89,10.0,West,27.6,35.7,N/A,,Clear,270,2013-02-13 16:56:00
10:56 AM,43.0,19.9,40,29.91,10.0,West,31.1,40.3,N/A,,Clear,280,2013-02-13 17:56:00
11:56 AM,45.0,19.0,36,29.93,10.0,West,28.8,38.0,N/A,,Clear,270,2013-02-13 18:56:00
12:56 PM,45.0,16.0,31,29.94,10.0,West,27.6,35.7,N/A,,Clear,280,2013-02-13 19:56:00
1:56 PM,44.1,18.0,35,29.94,10.0,West,26.5,35.7,N/A,,Clear,270,2013-02-13 20:56:00
2:56 PM,42.1,19.0,40,29.96,10.0,West,28.8,35.7,N/A,,Clear,270,2013-02-13 21:56:00
3:56 PM,41.0,18.0,40,29.98,10.0,West,28.8,33.4,N/A,,Clear,280,2013-02-13 22:56:00
4:56 PM,37.0,21.0,52,30.01,10.0,West,17.3,-,N/A,,Clear,270,2013-02-13 23:56:00
5:16 PM,32.0,24.8,75,29.99,10.0,NNE,20.7,41.4,N/A,,Mostly Cloudy,30,2013-02-14 00:16:00
5:56 PM,28.0,23.0,81,30.10,10.0,NNE,17.3,-,N/A,,Partly Cloudy,20,2013-02-14 00:56:00
6:56 PM,27.0,24.1,89,30.16,4.0,North,13.8,-,0.00,Snow,Light Snow,10,2013-02-14 01:56:00
7:06 PM,26.6,24.8,93,30.07,1.8,NNE,13.8,-,0.00,Snow,Light Snow,20,2013-02-14 02:06:00
7:15 PM,26.6,24.8,93,30.07,1.0,NNE,15.0,-,0.00,Snow,Light Snow,20,2013-02-14 02:15:00
7:23 PM,26.6,24.8,93,30.07,2.0,NNE,15.0,-,0.00,Snow,Light Snow,20,2013-02-14 02:23:00
7:32 PM,26.6,24.8,93,30.08,5.0,North,12.7,-,0.00,Snow,Light Snow,10,2013-02-14 02:32:00
7:42 PM,26.6,24.8,93,30.09,1.5,North,11.5,-,0.00,Snow,Light Snow,10,2013-02-14 02:42:00
7:52 PM,26.6,24.8,93,30.09,3.0,NNE,13.8,-,0.00,Snow,Light Snow,20,2013-02-14 02:52:00
7:56 PM,27.0,24.1,89,30.19,8.0,NNE,11.5,-,0.00,Snow,Light Snow,20,2013-02-14 02:56:00
8:56 PM,24.1,19.0,81,30.24,10.0,North,16.1,-,0.00,,Overcast,360,2013-02-14 03:56:00
9:56 PM,23.0,18.0,81,30.25,10.0,NNW,11.5,-,N/A,,Overcast,340,2013-02-14 04:56:00
10:56 PM,23.0,18.0,81,30.28,10.0,NW,8.1,-,0.00,,Overcast,310,2013-02-14 05:56:00
11:56 PM,21.9,18.0,85,30.29,10.0,WNW,5.8,-,N/A,,Overcast,300,2013-02-14 06:56:00